Location: Cronhütte
(48.9135°N, 9.6869°E)
Time: 03:38:52
(UTC+00:00)

IRAS Rocket - Pass Details

Date: 23 May 2024
Orbit: 846 x 877 km, 100.1° (Epoch: 19 June)

Event Time Altitude Azimuth Distance (km) Brightness Sun altitude
Rises 02:14:50 0° 17° (NNE) 3,438 8.7 -10.1°
Reaches altitude 10° 02:17:14 10° 18° (NNE) 2,494 7.8 -9.8°
Maximum altitude 02:22:46 83° 106° (ESE) 861 4.3 -9.2°
Drops below altitude 10° 02:28:14 10° 196° (SSW) 2,464 6.1 -8.6°
Enters shadow 02:29:00 - 196° (SSW) 2,763 6.3 -8.5°
